Location: Zagreb
(45.8000°N, 16.0000°E)
Time: 21:47:41
(UTC+01:00)

Tiros 1 - Visible Passes

Search period start: 25 January 2022 00:00
Search period end: 04 February 2022 00:00
Orbit: 629 x 664 km, 48.4° (Epoch: 25 January)

Date Brightness Start Highest point End Pass type
(mag) Time Alt. Az. Time Alt. Az. Time Alt. Az.
25 Jan 8.8 04:56:03 24° S 04:56:03 24° S 04:58:22 10° SSE visible
26 Jan 9.2 05:21:14 14° SSW 05:21:14 14° SSW 05:22:35 10° S visible
30 Jan 9.7 19:31:05 10° S 19:31:12 10° S 19:31:12 10° S visible
31 Jan 9.6 19:55:40 10° SSW 19:56:34 15° SSW 19:56:34 15° SSW visible
01 Feb 8.8 18:40:54 10° S 18:44:10 19° SE 18:44:10 19° SE visible
01 Feb 9.8 20:21:03 10° SW 20:21:51 15° SW 20:21:51 15° SW visible
02 Feb 8.0 19:05:22 10° SSW 19:09:23 35° SSE 19:09:23 35° SSE visible
02 Feb 10.2 20:46:51 10° WSW 20:47:04 11° WSW 20:47:04 11° WSW visible
03 Feb 9.0 17:50:45 10° S 17:53:51 17° SE 17:56:50 10° E visible
03 Feb 7.7 19:30:40 10° SW 19:34:31 51° SSW 19:34:31 51° SSW visible
